Wind_Speed
30 30 30 29 29 28 28 29 29 28 27 26 25 24 23 21 19 18 17 17 16 15 14 13 13 11 10 9 8 7 7 7 7 7 7 7 6 6 5 5 5 4 3 3 2 2 4 5 5 5 4 3 2 2 3 3 4 5 5 5 5 6 6 7 7 8 9 9 10 11 11 12 13 13 14 15 15 16 17 18 19 20 21 20 21
28 30 30 30 29 29 29 30 30 29 28 27 26 25 24 22 21 19 18 18 17 16 15 14 13 12 11 10 9 8 8 8 8 8 8 7 7 7 6 6 5 5 5 5 3 2 3 4 5 4 3 3 2 2 2 3 3 4 4 4 5 5 6 7 7 8 9 9 10 10 11 12 14 14 15 16 16 16 18 20 21 21 21 20 20
28 30 30 29 29 30 30 30 30 29 28 28 27 26 24 23 21 20 20 19 18 17 16 14 13 12 11 10 9 9 10 9 9 9 8 8 8 8 7 7 6 6 7 6 5 4 4 5 4 3 3 2 2 2 2 2 2 2 2 3 4 4 5 6 7 8 8 9 10 9 10 11 13 15 16 17 18 18 19 21 22 22 22 22 21
28 29 29 29 29 29 30 30 29 29 29 29 28 27 25 24 22 21 21 20 19 18 16 15 14 13 12 12 11 11 11 11 10 9 9 9 9 9 9 8 8 8 8 7 6 6 5 5 4 3 3 3 3 2 1 1 1 1 1 2 3 4 4 4 6 6 7 9 11 10 10 11 13 15 16 17 18 19 20 21 22 23 23 23 23
27 27 28 28 29 29 29 29 29 29 29 29 28 27 26 24 23 23 22 21 20 19 17 16 14 13 14 14 13 13 12 11 10 10 9 10 10 10 10 10 10 10 9 8 8 7 7 6 4 3 4 5 5 4 4 3 2 1 1 1 2 2 2 3 4 5 6 8 11 13 14 14 14 16 18 18 18 19 20 22 23 24 25 25 25
26 27 28 28 28 28 28 28 28 28 29 28 28 28 27 25 24 24 24 23 22 20 18 17 15 15 16 16 15 13 12 12 11 10 10 10 11 12 12 12 12 11 11 10 9 8 8 7 5 5 6 7 7 6 5 4 3 3 2 2 2 2 3 4 4 4 6 7 9 12 14 16 16 17 20 21 20 20 22 23 23 25 26 26 26
27 27 28 28 28 28 27 27 28 28 28 28 28 28 27 26 25 25 25 24 23 21 20 18 17 17 18 17 16 14 12 12 12 11 10 10 11 12 13 14 13 13 12 12 10 9 9 8 7 7 8 8 8 6 5 4 4 3 4 4 4 4 5 6 6 6 7 8 8 10 12 15 16 17 20 23 23 23 25 25 24 26 28 28 28
26 27 28 28 28 28 28 28 29 29 29 29 29 29 28 26 26 26 25 24 23 22 21 20 19 19 19 17 16 14 12 12 13 12 11 11 11 12 13 14 14 14 13 12 11 11 10 10 9 9 9 8 7 5 5 5 4 4 5 6 6 7 8 9 9 9 10 10 10 11 13 15 17 19 21 24 25 26 28 28 27 27 30 30 30
26 26 26 26 27 28 29 29 30 30 30 30 29 29 28 27 27 26 25 25 24 23 22 21 20 20 19 17 15 14 13 13 14 13 11 11 11 12 13 13 14 14 13 13 13 12 11 11 9 9 9 8 7 7 6 6 5 6 7 8 9 10 12 13 14 14 14 13 13 15 15 16 19 22 24 26 28 29 30 31 31 31 33 33 32
26 25 25 26 27 28 29 30 30 31 31 30 30 29 29 28 28 26 26 25 25 24 23 21 20 19 18 17 15 14 14 15 15 13 12 12 12 12 13 13 14 13 13 13 13 12 12 11 9 10 10 10 9 8 7 7 7 8 10 11 12 13 14 16 18 18 18 17 17 18 18 18 21 25 26 28 30 31 33 34 34 35 36 36 35
26 26 26 27 28 29 29 30 30 30 30 30 30 30 29 29 27 26 26 26 26 24 23 21 20 19 18 17 16 15 15 16 15 14 13 13 12 13 13 14 13 13 13 13 13 13 12 11 11 11 11 10 9 8 8 9 10 11 12 13 15 16 18 20 22 23 23 21 21 21 21 20 23 26 28 29 31 33 34 35 36 36 37 40 40
27 27 27 28 28 28 28 29 29 29 29 30 30 30 29 28 27 26 26 27 26 25 23 21 20 19 18 18 17 15 16 17 16 14 14 14 13 14 14 14 13 13 13 12 13 13 12 12 12 11 11 10 9 9 11 12 14 15 15 17 18 20 22 24 25 26 27 27 26 25 25 24 25 27 30 32 34 37 38 39 41 43 44 46 47
28 28 28 28 27 27 28 28 29 29 29 30 30 29 28 27 26 26 27 27 27 24 22 21 20 19 18 18 17 17 17 18 17 15 15 15 15 15 14 14 13 12 12 12 13 14 13 13 12 11 10 10 9 11 13 15 17 19 19 20 22 24 26 27 28 30 30 30 27 26 28 28 26 28 33 36 38 41 43 44 48 51 52 50 49
28 29 29 28 28 28 28 28 28 29 29 30 30 29 28 27 27 27 27 27 25 23 22 21 20 19 19 19 19 18 19 19 18 17 16 17 16 16 15 14 13 12 12 13 14 14 14 13 11 10 10 10 12 14 16 18 20 22 23 24 25 27 29 30 31 33 33 31 28 27 30 29 25 27 34 39 42 45 47 47 48 51 53 51 49
28 29 29 29 29 28 27 26 26 26 27 28 28 27 26 26 26 26 26 25 24 23 22 21 20 20 20 20 20 19 20 20 20 18 18 18 17 16 15 14 14 13 13 14 15 15 14 12 11 11 12 13 15 17 19 21 22 23 25 28 29 30 30 31 33 35 35 34 32 31 33 33 30 32 37 42 46 49 49 47 48 54 58 54 49
28 28 28 28 28 27 26 25 24 24 24 24 24 23 23 22 23 23 23 23 22 22 22 21 21 22 22 21 20 20 21 22 21 19 20 20 18 17 16 15 15 14 15 15 15 14 13 12 12 12 14 15 18 20 22 23 24 25 27 29 30 31 30 31 33 36 37 37 33 32 36 39 39 39 40 44 48 51 52 50 51 57 62 58 52
26 25 25 25 24 23 22 21 20 20 20 19 19 18 18 18 19 19 19 19 19 19 20 22 23 24 24 23 22 22 23 23 22 21 21 20 18 17 17 16 16 15 16 16 16 14 14 14 14 15 15 17 20 22 24 25 25 26 27 29 31 32 31 32 36 38 39 37 34 34 38 41 42 42 42 44 46 49 51 52 52 56 61 61 57
26 25 23 22 21 20 19 19 18 17 16 16 16 16 16 16 17 17 18 18 18 19 20 21 22 23 24 25 25 25 25 24 23 22 22 21 19 18 18 18 17 17 17 18 17 16 16 16 17 17 17 19 22 24 26 27 26 27 28 29 31 33 35 37 39 40 39 37 35 35 37 41 43 42 41 43 45 47 50 51 53 55 59 60 58
27 26 25 24 23 22 21 20 19 18 17 17 16 16 16 16 16 17 17 17 19 20 21 21 21 22 23 25 27 26 26 26 24 22 22 22 20 20 20 19 18 18 19 19 19 18 18 19 19 19 20 21 24 25 27 28 28 27 28 29 31 37 41 44 44 43 40 35 33 35 38 41 42 42 42 43 44 47 49 51 53 55 57 57 56
30 29 28 27 26 24 23 22 21 20 20 19 19 18 17 17 17 16 16 17 18 19 20 21 22 22 22 23 26 27 27 27 26 24 23 23 22 21 21 20 20 20 21 21 21 20 20 20 20 22 23 24 25 27 28 29 29 29 31 32 34 39 45 49 49 46 41 38 38 41 43 43 43 44 44 44 45 47 49 52 54 56 56 54 52
32 31 30 28 27 26 25 24 24 23 23 23 22 21 20 19 19 18 17 17 17 17 18 20 21 23 23 22 23 25 27 28 28 26 25 24 24 24 23 22 22 24 24 23 22 22 21 22 23 24 26 27 27 28 29 30 31 31 34 36 37 40 46 52 54 50 46 44 44 45 46 47 47 47 46 46 47 48 50 52 53 55 55 53 51
34 32 31 30 29 28 27 27 26 26 25 25 24 24 24 23 22 21 20 19 18 18 17 18 19 21 23 23 22 23 25 28 29 28 27 26 26 26 25 24 26 27 26 25 24 24 24 24 25 26 28 29 29 30 31 32 33 34 36 39 40 42 45 51 54 53 50 48 46 47 49 50 49 48 48 48 48 49 50 51 52 53 53 50 49
37 35 34 33 32 32 31 30 29 28 27 27 26 26 26 26 26 25 24 23 21 20 19 18 17 18 20 22 22 23 25 26 28 29 29 28 28 28 27 27 28 29 28 27 27 26 26 25 26 27 29 29 30 31 32 33 35 36 38 40 42 44 45 48 52 54 54 53 52 52 53 52 51 51 51 50 49 50 51 51 51 52 51 49 47
40 39 38 37 36 36 35 34 33 33 31 29 28 28 28 28 28 27 27 26 25 24 22 21 19 18 18 19 20 22 25 26 28 29 30 30 30 29 28 28 29 30 29 28 28 27 26 27 28 29 30 31 32 33 34 36 37 38 39 41 43 45 46 48 51 54 55 56 56 57 56 55 54 54 54 53 52 52 53 52 51 51 49 47 46
41 41 41 41 41 40 39 38 37 35 33 31 30 30 31 30 29 29 29 28 28 27 27 26 24 22 21 20 19 20 23 25 28 30 31 32 32 31 30 30 30 30 29 29 28 28 28 30 31 32 32 33 34 35 36 37 39 39 40 42 44 46 48 49 51 53 55 57 58 59 58 58 57 57 57 56 56 56 56 55 53 51 48 44 43
40 41 41 41 42 42 41 39 37 34 32 31 32 33 33 33 32 32 31 30 30 30 30 31 29 27 26 24 22 22 22 23 26 29 31 32 33 33 32 31 31 31 30 30 30 30 31 33 33 33 34 35 36 38 39 39 40 41 42 43 45 47 49 51 53 54 56 57 58 59 59 59 59 60 60 60 60 61 61 60 58 54 49 44 41
42 43 42 42 42 42 40 38 36 35 34 35 35 36 36 36 35 35 34 33 33 33 33 33 33 32 31 29 27 26 25 24 25 27 29 31 32 33 33 33 33 33 32 32 33 33 34 34 35 35 36 37 38 40 41 41 42 43 45 46 48 49 51 53 54 55 56 57 58 59 59 60 61 61 62 62 62 63 63 64 62 59 54 48 43
46 47 46 45 44 43 41 39 39 39 39 39 39 39 39 39 39 38 38 38 37 37 37 36 36 36 35 34 32 30 28 27 26 26 28 29 31 32 32 33 34 34 34 34 35 35 35 36 37 38 38 39 40 41 43 44 45 46 47 49 50 51 53 54 55 56 57 57 58 59 60 61 62 62 63 63 63 63 64 65 65 62 57 51 47
48 49 49 49 48 47 45 44 44 44 44 44 43 43 43 43 43 42 42 42 41 41 40 40 39 39 38 37 36 34 33 31 30 29 29 29 30 31 32 34 35 35 36 36 36 37 37 38 38 39 40 41 42 44 45 47 47 48 49 50 52 53 54 55 56 56 57 58 59 60 61 62 63 63 64 64 64 63 63 65 65 63 58 54 51
49 49 50 51 51 51 50 49 49 49 48 48 47 47 47 46 46 46 46 46 45 45 45 44 44 43 42 41 39 38 37 35 34 33 32 31 32 32 33 34 35 36 36 37 37 38 39 39 40 41 43 44 45 46 48 48 49 50 51 52 54 55 56 56 56 57 58 59 60 60 61 63 64 64 65 65 65 64 64 65 65 63 58 55 53
47 48 50 50 51 52 52 52 52 52 51 51 51 51 50 50 50 50 50 50 50 49 49 49 48 47 46 45 44 42 41 39 38 37 36 35 35 35 36 36 37 38 39 39 40 41 41 42 43 44 45 46 47 48 49 49 50 52 53 55 56 57 57 57 57 58 59 60 60 61 62 64 65 66 66 66 66 65 65 65 65 62 58 55 54
42 45 46 48 49 50 51 51 51 51 51 51 51 51 51 51 51 50 50 50 49 49 49 49 50 50 50 49 48 46 44 43 41 41 40 39 39 39 39 39 40 41 41 42 43 43 44 44 45 46 47 48 49 49 50 51 53 54 56 57 58 58 57 57 58 59 60 60 61 62 63 65 66 67 67 67 67 67 66 65 63 60 56 55 55
36 38 40 41 43 45 46 47 48 49 49 49 49 49 48 48 47 46 46 45 44 44 44 46 47 49 50 50 50 48 46 44 43 42 42 42 42 42 42 42 43 43 44 45 46 46 46 46 47 48 49 49 50 51 52 53 55 57 58 59 58 58 57 58 59 60 61 61 62 63 64 66 67 68 68 68 67 67 66 65 62 58 55 55 56
34 34 35 36 37 38 39 40 41 42 43 43 43 43 42 41 40 39 39 39 38 38 39 40 42 44 46 47 46 46 46 44 44 43 43 43 43 44 44 46 47 47 47 47 47 46 46 46 47 49 50 50 51 52 53 55 57 59 59 58 57 57 58 59 60 61 61 62 63 64 66 67 68 68 68 68 67 67 66 63 59 56 56 56 57
36 35 35 35 35 36 36 36 36 36 37 37 37 37 36 35 35 35 34 34 34 35 35 36 36 38 40 40 41 42 43 44 44 43 43 43 44 46 47 50 51 51 50 48 46 45 45 46 47 49 50 50 51 53 55 57 59 59 58 57 57 58 59 60 61 61 62 63 65 66 67 68 68 69 69 68 68 68 65 61 57 56 57 59 61
36 37 36 36 35 35 36 35 35 35 35 35 34 34 34 33 33 33 33 33 33 33 33 33 33 34 35 36 36 37 39 41 42 42 42 43 45 47 50 52 52 51 51 50 49 47 47 48 49 51 52 53 55 56 57 58 58 57 57 57 58 59 60 61 61 63 64 65 66 67 68 68 69 69 69 68 68 67 63 58 56 56 58 61 64
34 36 36 36 36 36 36 36 36 35 35 35 35 34 34 34 34 34 34 33 33 33 33 33 33 34 35 35 35 35 36 38 40 42 44 46 48 51 53 53 51 51 52 52 51 49 48 48 50 52 53 55 56 56 56 56 57 57 58 59 59 60 61 62 63 64 65 67 68 68 69 69 69 69 69 69 68 64 59 56 55 56 58 61 64
33 34 36 36 37 37 37 37 37 36 36 36 36 36 36 36 36 36 36 35 34 34 33 33 34 35 36 36 37 37 37 38 40 42 45 47 47 49 51 50 47 46 48 48 48 48 47 48 50 52 53 54 55 55 56 57 57 58 59 59 60 61 62 63 64 66 67 68 69 69 69 69 70 69 69 69 65 60 56 54 55 57 59 60 61
32 33 35 36 37 37 37 37 37 37 36 36 36 36 37 37 38 38 37 36 36 36 36 36 36 36 37 38 38 39 39 40 42 43 45 44 43 43 44 42 41 41 42 44 46 48 49 50 52 53 53 54 55 56 57 58 58 59 60 61 61 62 63 65 66 68 69 69 69 69 70 70 70 70 69 67 62 57 55 56 57 58 60 60 59
31 33 35 37 37 37 38 38 38 37 37 37 36 36 37 37 39 39 37 37 38 39 39 38 38 38 39 39 40 41 41 42 43 45 45 45 43 42 42 43 43 44 46 47 49 51 52 52 53 53 54 55 56 57 58 59 60 61 61 62 63 64 65 66 68 69 69 70 69 70 70 70 71 70 67 63 59 57 57 59 59 60 60 59 58
31 32 34 37 39 39 38 39 39 38 38 38 37 37 37 38 39 40 39 39 40 41 41 40 40 41 41 42 42 43 43 44 46 46 47 47 47 46 47 48 49 50 50 51 52 52 53 53 54 55 56 57 58 58 60 60 61 62 63 64 65 66 67 68 69 69 70 70 70 70 70 71 71 68 63 60 59 59 60 62 62 61 59 57 56
36 33 34 36 39 41 41 41 41 40 40 39 39 39 39 40 41 42 42 42 42 42 43 43 43 43 44 45 45 46 46 47 48 49 50 50 50 50 50 51 52 53 53 54 54 54 54 55 56 57 58 58 59 60 61 62 63 64 65 66 67 68 68 69 69 70 70 70 70 70 71 70 68 64 60 59 61 62 63 63 62 60 58 56 55
41 38 37 38 40 42 43 44 44 43 43 42 41 41 43 44 44 44 44 43 43 43 44 45 45 46 47 47 48 48 49 49 50 51 51 52 52 53 53 54 54 55 55 55 55 56 56 57 58 59 60 60 61 62 63 64 65 66 67 68 69 69 69 70 70 70 70 71 71 70 69 66 63 60 60 61 62 62 62 62 61 59 57 55 55
44 42 41 41 42 43 43 45 45 46 45 45 44 45 46 46 43 42 42 44 44 44 45 47 48 48 49 50 50 51 51 52 53 53 53 54 54 55 55 56 56 57 57 57 57 58 59 60 60 61 62 63 64 65 66 66 67 68 69 69 70 70 70 70 70 70 70 71 70 67 65 62 60 60 61 61 61 61 60 60 58 57 56 55 55
45 45 44 43 43 44 44 45 46 46 47 47 46 48 50 50 47 44 44 46 46 46 47 49 51 52 53 53 53 54 54 54 55 55 55 56 56 57 57 57 58 58 59 59 60 61 61 62 63 63 64 65 66 67 67 68 69 70 70 70 70 71 71 70 70 70 70 68 66 63 61 61 61 62 61 60 60 59 59 58 57 57 56 56 56
47 46 44 41 41 43 44 45 46 46 47 47 47 48 51 53 52 50 50 50 51 50 50 52 53 54 55 56 56 56 57 57 57 58 58 58 58 58 59 59 59 60 61 61 62 63 64 64 65 66 66 67 68 68 69 70 70 71 71 71 71 71 70 70 69 68 67 64 62 61 61 62 63 62 61 59 59 58 58 57 57 56 56 55 55
48 45 41 39 39 40 42 43 45 46 47 47 48 49 50 51 53 53 53 53 54 55 55 55 56 57 57 58 58 58 59 59 59 59 60 60 60 60 60 60 61 61 62 63 64 65 65 66 67 68 68 69 70 70 71 71 71 71 71 71 70 70 70 69 67 65 63 62 62 63 63 62 62 62 60 59 59 59 58 57 56 55 54 54 54
46 42 39 38 38 39 39 41 43 45 47 48 49 51 52 53 54 56 57 57 58 59 59 59 60 61 61 61 62 62 62 62 62 62 62 62 61 61 62 62 63 63 64 65 66 67 67 68 69 70 70 71 71 72 72 72 71 71 70 70 69 69 68 66 64 63 62 63 64 65 63 62 61 61 60 59 59 58 57 56 55 54 53 53 53
45 41 39 38 38 38 39 41 43 46 48 50 52 53 55 56 57 59 60 61 62 64 65 65 66 67 67 66 67 67 67 66 66 65 65 64 64 64 64 64 64 65 66 67 67 68 69 69 70 70 71 71 71 72 72 71 71 70 70 69 68 67 66 64 63 63 64 64 65 65 64 62 61 60 60 59 59 57 56 55 54 53 53 53 52
46 43 41 40 41 43 45 48 50 50 52 54 56 57 59 61 62 64 65 66 67 68 70 70 71 71 71 71 71 71 71 70 70 69 68 67 66 66 65 65 65 66 67 68 69 69 70 71 71 71 71 71 70 71 70 70 69 69 68 68 67 65 65 64 64 65 66 65 64 63 62 61 60 60 60 59 58 56 54 53 53 53 53 53 53
46 46 46 47 50 52 53 54 55 54 53 54 55 56 58 60 62 64 67 70 73 73 74 75 75 75 74 74 74 74 74 74 72 71 69 67 66 66 65 65 65 66 67 68 69 69 69 69 69 68 68 68 68 68 68 68 68 67 66 65 65 65 65 65 65 66 66 64 63 62 61 61 60 59 59 57 56 55 54 53 53 53 54 54 54
Wind_Direction
208 205 201 198 198 197 196 196 199 198 194 193 195 198 202 204 205 208 210 214 217 217 219 222 226 231 232 232 233 235 235 232 231 235 239 244 246 247 247 249 253 253 252 258 285 332 347 352 358 11 30 48 62 64 60 57 55 54 51 46 43 37 32 27 21 16 12 9 5 0 356 352 348 346 344 341 340 339 337 336 336 336 336 338 338
209 209 206 201 198 198 197 198 199 199 196 195 197 199 202 204 206 209 212 215 217 217 219 222 226 230 233 236 237 239 241 238 234 235 237 240 241 242 243 243 243 243 243 245 246 266 306 325 334 339 353 18 35 46 52 57 57 54 44 33 27 23 20 15 9 4 2 359 356 354 353 347 340 339 338 335 334 335 334 332 332 331 332 334 333
208 210 208 204 201 199 198 199 200 199 198 197 199 201 203 205 207 208 212 215 217 218 219 221 225 229 233 236 237 239 242 241 239 239 238 239 240 240 240 240 238 239 240 243 239 239 267 299 313 315 315 328 348 1 21 44 56 56 41 20 7 10 13 7 2 359 354 349 346 346 345 338 332 331 332 330 329 330 329 326 325 326 327 329 328
207 209 208 205 203 200 200 201 201 201 199 199 200 202 204 206 206 208 212 214 216 219 221 221 224 229 234 236 237 239 243 245 245 243 240 238 237 237 237 237 238 240 243 244 241 239 258 280 290 292 288 279 267 262 278 315 15 44 30 357 347 0 11 3 357 354 348 340 335 335 337 333 326 324 324 324 324 324 323 320 318 320 322 324 325
205 207 207 206 203 201 201 203 203 202 201 201 202 203 206 207 206 208 212 213 215 219 221 223 224 228 235 238 241 244 248 251 250 245 239 236 235 234 234 235 235 238 241 243 242 247 261 271 277 281 276 265 250 236 232 232 223 237 289 306 323 339 347 346 347 347 341 332 324 324 327 326 326 323 319 318 318 318 316 313 313 317 319 321 323
202 203 205 205 203 202 202 203 204 205 204 203 204 206 207 207 206 208 211 212 214 216 218 221 224 229 236 241 245 248 251 254 254 248 240 233 230 231 232 234 234 235 237 238 241 248 260 268 272 273 268 260 249 235 223 222 216 223 252 275 293 305 315 321 334 340 333 326 321 318 317 319 323 322 316 314 316 314 310 308 313 316 316 319 324
201 202 203 203 203 202 203 203 204 206 206 206 206 208 208 208 208 209 211 211 212 213 214 217 221 229 236 241 245 248 251 256 257 253 242 233 228 228 229 232 233 234 235 236 237 241 250 258 261 259 255 250 247 239 226 227 226 230 252 281 301 311 313 314 324 332 326 323 321 314 311 314 317 315 311 310 312 312 310 311 315 316 314 319 323
200 202 203 203 203 203 203 203 204 206 207 207 207 209 209 209 209 211 212 212 212 213 213 215 220 227 234 240 244 247 250 254 256 252 244 237 233 230 229 231 232 233 234 234 235 238 242 245 243 242 240 238 238 234 226 232 241 250 267 288 307 314 315 313 317 317 312 313 314 309 310 314 313 310 306 306 307 308 309 313 317 316 315 319 322
199 202 204 204 204 204 204 203 204 205 206 206 207 209 210 210 212 213 213 213 215 216 217 219 222 227 233 237 241 243 245 250 254 252 247 243 239 235 232 232 232 233 233 233 234 235 235 233 227 223 221 220 220 220 224 238 250 260 273 287 300 307 310 310 307 304 301 303 305 305 310 314 309 304 303 304 305 306 308 312 315 315 315 318 321
199 200 202 203 204 205 205 205 205 206 206 206 207 209 210 212 214 214 215 215 216 218 221 224 226 228 232 234 236 238 241 248 252 253 250 246 244 242 237 234 233 232 232 231 229 228 227 222 212 206 205 207 214 224 237 251 259 265 274 286 296 301 303 301 297 294 294 298 300 301 306 308 302 300 302 303 304 306 308 309 311 312 312 314 316
201 201 203 203 204 205 205 206 207 207 207 207 209 211 213 214 216 216 217 218 219 220 222 225 228 231 232 233 234 235 239 246 250 251 250 247 245 245 243 241 238 233 230 227 224 221 218 213 206 203 205 212 224 240 255 264 270 274 279 287 294 296 296 294 293 295 297 299 296 294 296 298 296 297 302 304 306 308 308 307 308 307 307 310 312
203 204 206 207 206 207 207 208 208 207 208 209 211 213 216 217 218 218 219 220 221 223 224 226 228 231 234 236 236 235 239 245 248 248 247 245 245 246 248 246 241 233 228 223 218 217 214 210 208 208 215 227 241 257 268 275 280 283 286 289 292 293 294 295 297 300 300 298 296 295 295 295 298 303 306 308 310 310 308 309 309 309 311 313 314
205 207 210 210 210 210 210 210 210 209 209 210 212 215 217 218 219 219 220 222 224 225 226 228 230 232 235 238 239 238 241 246 248 247 245 245 247 250 250 248 243 236 229 220 215 214 212 211 212 216 228 242 255 266 273 279 283 286 289 290 292 292 294 297 299 299 297 297 299 299 295 292 299 309 311 310 311 310 310 313 315 315 316 316 317
205 207 210 211 211 212 212 213 213 213 213 213 214 216 217 217 218 218 220 223 225 227 228 231 233 235 237 239 240 241 243 247 248 246 244 245 248 250 251 249 245 238 229 222 217 214 213 214 219 229 242 254 263 268 274 278 282 286 290 291 293 294 296 299 300 298 298 299 302 303 301 299 303 308 308 309 313 314 313 316 320 319 316 315 318
204 206 208 209 211 211 212 213 214 215 216 216 217 217 217 217 217 219 221 224 226 228 230 233 236 237 239 241 242 243 244 247 248 247 245 245 247 250 250 248 244 238 232 227 222 218 218 221 228 240 252 261 268 272 276 280 284 289 293 295 297 298 300 303 303 302 302 302 306 312 314 312 308 305 306 312 318 320 319 321 324 320 315 317 320
201 204 206 208 210 211 211 212 212 214 216 217 218 218 218 219 221 223 225 228 230 231 233 235 237 239 240 242 243 244 245 246 247 246 245 245 248 249 248 245 241 237 235 232 227 225 227 231 238 249 260 268 274 278 280 283 288 292 295 297 299 300 303 306 305 304 300 300 308 316 314 312 313 315 319 323 326 324 321 323 324 319 316 318 320
196 198 201 204 206 205 204 204 205 207 209 211 213 215 216 218 223 226 228 230 232 233 234 235 237 238 239 241 242 243 244 244 244 243 243 244 246 247 246 244 241 237 236 234 232 232 237 241 247 255 264 273 279 281 283 285 289 293 295 297 299 302 305 304 301 299 297 299 309 314 313 317 325 328 328 326 323 319 318 321 322 318 316 317 317
191 192 195 196 195 192 191 191 194 197 199 202 205 208 212 216 221 226 228 231 232 232 234 236 238 239 239 240 241 243 245 244 243 242 242 243 245 246 245 243 241 238 238 237 236 237 241 247 254 260 267 274 277 279 282 284 286 290 292 295 300 304 303 299 296 296 298 304 312 315 316 322 326 325 322 320 318 317 318 321 320 317 315 314 313
191 192 194 194 192 192 193 193 196 197 198 200 204 207 211 215 220 225 227 230 233 234 236 238 241 242 241 241 241 243 246 247 244 242 242 243 244 246 246 244 241 240 239 240 240 242 246 252 259 264 268 271 273 276 278 279 282 287 291 297 303 304 302 299 295 295 301 310 316 318 319 320 320 320 320 319 319 319 320 320 319 317 316 314 313
193 195 198 198 197 197 198 199 201 202 204 206 208 210 213 217 222 227 230 233 236 239 241 242 244 244 244 242 242 242 246 249 247 242 241 242 244 246 246 245 242 240 241 242 244 247 250 255 261 265 267 268 270 272 275 278 283 290 295 300 302 302 302 301 299 300 308 317 320 319 319 318 318 318 318 318 320 321 321 321 321 319 318 316 314
197 199 201 202 202 203 203 204 206 208 210 212 214 216 219 222 225 229 233 237 241 245 248 247 247 247 246 245 242 241 243 248 249 245 241 242 245 247 247 245 241 240 241 243 245 247 251 256 260 264 266 268 269 272 276 282 288 293 296 297 298 301 303 302 303 308 316 319 318 317 316 315 315 315 316 319 322 323 322 322 322 323 322 319 316
200 202 203 204 205 208 209 210 211 212 214 216 218 221 224 226 228 231 235 239 244 251 254 253 251 249 248 246 244 242 242 245 249 248 245 243 245 247 249 247 242 240 241 243 245 247 251 255 260 265 268 271 273 276 280 284 288 291 293 294 295 298 301 301 303 309 314 314 313 313 312 312 311 312 315 319 321 321 321 322 323 323 322 318 315
204 205 207 207 208 212 214 214 214 217 218 219 221 224 227 229 231 233 236 238 242 248 253 255 256 255 253 250 247 245 244 244 248 250 248 247 247 248 250 251 246 242 243 244 245 248 253 258 264 268 272 275 277 278 281 283 285 288 290 292 295 298 299 300 303 306 308 309 310 311 311 310 310 311 314 318 320 321 321 322 323 322 320 317 315
209 209 209 210 212 214 216 217 216 217 218 220 223 226 229 231 233 235 237 238 240 244 248 252 254 256 258 257 252 248 246 245 247 250 251 251 251 250 251 253 250 247 246 246 248 252 257 261 265 269 273 275 276 277 279 281 283 286 289 292 296 298 299 300 302 304 306 308 310 311 310 310 310 313 316 318 320 322 322 322 324 324 321 318 317
215 215 213 213 215 216 218 221 220 217 217 221 225 229 231 233 235 237 239 240 242 244 248 251 252 252 254 255 255 253 250 248 247 248 249 251 252 253 253 254 254 253 251 252 255 257 259 261 264 268 272 274 275 277 279 281 283 286 290 293 296 298 299 301 302 304 306 308 309 310 310 311 313 317 319 320 322 324 324 323 325 326 324 320 319
225 226 224 222 221 220 221 224 224 220 222 227 230 233 236 238 239 241 242 243 244 245 247 250 251 252 252 252 252 252 252 252 251 250 250 250 251 253 254 255 256 257 256 257 257 258 259 262 265 268 271 273 275 277 279 281 285 288 292 295 297 299 300 301 302 304 306 307 308 309 311 313 316 319 321 322 324 325 324 324 325 327 325 323 322
227 231 232 232 230 228 228 229 227 225 227 231 234 236 239 241 243 245 245 245 245 246 248 249 251 252 251 251 250 250 252 253 253 252 252 251 251 252 254 255 256 256 257 257 257 258 260 264 266 269 271 273 274 276 279 282 286 290 293 296 298 299 300 300 301 303 304 305 307 308 311 314 317 319 321 322 323 324 324 324 324 326 325 324 323
226 228 230 232 232 232 231 231 230 229 230 232 235 237 239 242 244 245 246 246 246 246 248 250 252 253 253 251 250 250 251 253 253 253 252 252 252 253 254 255 256 256 256 257 258 260 262 265 267 269 271 273 275 277 280 283 287 290 292 294 296 298 299 300 301 302 303 304 306 308 311 314 316 318 319 321 322 322 323 323 323 324 324 323 323
227 227 228 230 231 231 230 230 230 230 230 232 233 236 238 240 243 244 246 246 247 247 248 249 250 252 254 254 253 251 250 251 252 252 251 251 251 252 252 254 255 255 256 256 258 260 263 265 267 269 272 275 277 280 282 284 286 289 291 293 295 297 298 299 300 301 302 304 306 309 311 313 315 316 318 319 320 321 322 322 321 322 322 322 323
229 229 229 230 231 231 231 231 231 231 231 232 233 234 236 238 240 242 244 245 246 247 248 248 248 249 250 252 253 253 251 250 250 250 250 250 250 250 250 252 253 254 255 257 259 261 264 266 269 271 274 277 279 281 282 284 286 288 290 293 295 297 297 298 299 300 302 304 306 308 311 312 314 315 316 317 318 320 321 322 321 321 321 322 323
229 230 231 231 232 233 233 234 234 234 234 235 235 236 237 238 240 242 244 245 247 249 249 250 251 251 251 251 252 253 252 252 251 250 250 249 250 251 252 253 254 256 257 259 261 263 265 268 270 273 276 277 279 280 282 283 286 288 291 293 295 296 297 297 298 299 301 303 305 308 310 311 313 314 315 315 317 319 321 322 321 320 321 322 323
230 231 233 234 234 235 236 237 238 239 240 241 241 242 243 245 246 248 249 251 252 253 253 253 253 253 253 253 254 254 254 253 252 251 251 251 252 253 254 256 257 259 260 262 263 265 267 269 271 273 275 276 277 279 281 284 286 288 290 293 294 295 295 296 297 299 300 302 305 307 309 311 312 312 313 315 316 318 320 321 321 319 319 321 322
230 231 232 234 235 236 237 239 240 242 243 245 246 248 249 250 251 252 252 253 253 253 252 251 251 252 253 254 255 256 255 254 253 252 252 253 254 255 257 259 260 261 261 262 263 264 265 267 270 272 274 276 277 279 281 284 286 288 290 291 292 293 294 295 297 298 300 302 305 307 309 310 311 311 313 314 316 318 320 320 320 318 317 319 320
232 232 232 234 235 236 237 238 239 240 242 243 244 245 247 247 248 248 248 248 249 249 249 250 250 252 254 255 256 257 256 256 255 254 254 255 255 256 258 260 261 263 263 263 264 264 264 265 268 272 274 276 278 279 281 283 286 288 289 290 290 291 293 295 296 298 300 303 305 307 308 309 309 310 312 314 316 318 319 319 318 316 316 318 320
232 233 234 235 237 238 238 239 239 240 240 241 241 242 243 244 245 245 246 247 248 250 251 252 254 255 257 258 258 257 257 257 256 256 256 256 256 256 256 257 259 262 264 266 267 267 266 266 269 272 274 276 278 280 282 283 285 287 288 289 290 292 293 295 297 299 301 303 305 306 307 308 309 310 312 313 315 317 318 317 316 315 316 318 320
234 235 236 237 239 240 240 240 241 241 242 243 244 245 245 246 247 248 249 251 252 253 255 257 258 259 261 261 261 259 258 258 258 258 259 259 258 258 257 257 258 260 262 263 264 265 267 268 270 272 274 276 278 280 282 283 285 286 287 289 290 292 294 296 298 300 301 302 304 305 306 307 308 310 312 314 315 316 316 315 314 314 316 318 320
237 237 238 239 240 241 242 242 243 243 245 246 247 249 250 250 251 252 252 253 254 255 256 258 259 260 261 262 262 260 259 259 259 259 259 259 259 259 261 262 263 264 265 265 266 267 269 272 273 274 276 277 279 281 282 284 285 286 288 289 291 292 294 296 298 299 300 301 303 304 305 307 308 310 312 314 315 315 314 313 313 314 316 318 319
243 241 240 240 241 241 242 243 244 245 246 247 249 250 251 252 252 253 252 253 253 254 255 256 257 258 259 260 261 261 260 259 259 259 259 260 262 264 266 267 267 266 265 266 267 268 270 272 274 275 276 278 279 281 283 284 286 287 288 290 291 293 295 296 297 299 300 301 303 304 306 308 309 310 312 313 313 313 312 312 313 314 316 317 317
250 249 245 242 241 242 242 243 243 244 245 247 249 250 252 253 254 253 253 253 253 254 254 254 255 256 257 258 259 260 260 261 261 262 263 264 265 265 263 262 262 263 264 266 268 269 272 274 275 276 278 279 281 282 283 285 286 287 289 290 292 293 294 296 297 298 300 301 303 305 307 308 309 310 312 312 311 311 311 312 313 315 315 316 316
255 257 253 248 244 243 243 243 244 244 245 246 247 250 251 252 254 255 254 254 254 255 255 255 254 255 256 257 258 259 260 261 262 263 265 266 265 264 262 263 265 268 269 269 270 271 273 275 276 278 279 281 282 283 284 285 287 288 289 290 292 293 294 296 297 298 300 302 304 306 307 308 309 310 311 311 309 309 310 311 312 313 314 314 314
255 259 259 254 249 246 245 244 244 245 246 246 247 248 250 251 254 255 255 254 254 254 255 255 255 256 257 257 258 258 259 261 262 263 265 266 266 266 266 268 270 272 272 273 273 274 276 277 278 280 281 281 283 284 285 286 287 288 289 290 292 293 294 296 297 299 301 303 305 306 307 308 309 309 309 309 308 309 310 310 311 311 312 312 313
254 260 262 259 253 250 249 247 246 245 246 247 248 249 250 251 252 253 254 254 254 253 254 255 257 257 258 259 260 260 261 262 263 264 266 267 268 268 269 270 270 272 273 274 276 277 278 279 280 280 281 282 283 284 285 286 287 288 289 291 292 293 295 297 298 300 302 304 305 306 307 308 308 308 307 308 308 309 310 310 310 310 311 311 312
255 262 266 262 255 251 250 250 249 248 247 247 248 249 251 251 253 254 256 257 256 255 255 257 258 258 259 260 261 262 263 263 264 265 266 268 269 270 271 272 272 273 274 275 276 277 278 279 280 281 282 283 284 285 286 286 288 289 290 291 293 294 296 298 300 301 303 304 305 306 306 306 306 306 307 307 308 308 309 309 309 310 310 310 311
255 263 268 263 255 251 250 250 250 251 250 250 250 250 251 252 253 255 257 259 259 259 258 258 258 259 260 261 261 262 263 264 265 266 266 267 268 269 270 271 272 273 274 276 276 277 278 279 280 281 282 283 284 285 286 287 288 290 291 292 294 296 297 299 300 302 303 304 304 305 305 304 305 305 306 306 307 307 307 308 309 309 309 310 310
258 266 267 259 253 251 250 250 250 250 251 252 252 253 255 256 256 254 254 257 259 259 259 258 258 259 260 260 261 262 262 263 264 265 266 266 267 268 269 271 272 273 275 276 277 278 279 280 281 282 283 284 285 286 287 288 289 290 292 293 295 296 297 299 300 301 302 302 302 302 302 303 304 304 305 305 305 306 306 306 307 307 307 308 308
263 267 261 252 249 250 250 250 251 250 251 252 253 253 256 259 261 260 258 258 258 259 259 259 259 259 260 260 261 262 263 263 264 265 266 266 267 268 270 271 272 273 275 276 277 278 279 281 282 282 283 284 285 286 287 288 289 291 292 293 295 296 297 298 299 300 300 300 300 300 301 302 303 303 303 303 303 303 303 304 304 304 305 305 305
265 262 251 244 247 250 249 250 253 253 252 253 254 254 256 258 261 263 264 263 262 261 261 261 261 261 261 262 262 263 264 264 265 266 267 268 269 270 271 272 274 275 276 277 278 279 280 281 282 283 284 284 285 286 287 288 290 291 292 293 294 296 297 298 298 298 298 298 298 299 301 301 301 301 302 302 301 301 301 301 300 301 301 302 303
261 252 242 241 245 247 248 251 254 255 255 255 255 255 256 257 258 261 263 264 265 265 264 264 264 263 263 263 263 264 264 265 266 266 267 268 269 271 272 273 274 275 276 277 278 279 280 281 282 283 283 284 285 286 288 289 290 291 292 293 294 295 296 296 295 295 296 297 298 299 299 300 299 299 299 299 298 298 298 298 298 298 298 299 300
253 243 237 238 242 244 249 256 261 263 263 261 259 258 258 257 257 258 259 260 262 263 264 264 264 264 264 265 265 265 265 266 266 267 268 268 269 270 271 272 273 274 276 277 278 279 280 281 282 283 284 285 286 287 288 289 290 291 292 293 294 294 293 293 293 294 295 296 297 298 298 297 297 296 296 296 296 296 296 295 295 295 296 297 298
246 239 237 241 245 250 257 264 268 269 269 267 265 264 262 260 260 260 260 260 260 261 262 262 263 263 264 264 264 265 266 266 266 267 267 268 268 269 270 272 274 275 277 278 279 280 280 281 282 283 284 285 286 287 288 289 290 291 292 292 292 291 291 292 292 293 294 295 295 295 295 294 293 293 293 293 294 294 294 294 294 294 295 296 297
243 243 248 255 260 263 267 269 272 273 273 272 270 267 266 265 265 263 261 261 260 260 260 261 262 262 263 264 264 265 265 265 265 265 266 266 268 269 271 274 276 277 278 279 279 280 281 282 283 284 285 285 286 286 287 288 289 290 290 290 290 290 291 292 292 293 293 293 293 292 292 291 291 291 291 292 293 293 293 293 294 294 295 295 297
Height
5908 5909 5910 5911 5913 5915 5917 5919 5921 5923 5926 5928 5930 5932 5934 5936 5938 5939 5941 5942 5943 5944 5945 5946 5947 5947 5948 5948 5948 5948 5949 5949 5949 5949 5950 5950 5951 5952 5952 5952 5952 5952 5952 5953 5953 5953 5953 5953 5953 5953 5952 5952 5952 5951 5951 5951 5951 5951 5951 5951 5951 5951 5951 5951 5951 5951 5951 5951 5951 5950 5950 5949 5949 5948 5948 5947 5947 5946 5945 5944 5943 5942 5940 5939 5938
5906 5908 5909 5910 5912 5913 5915 5917 5919 5921 5924 5926 5928 5930 5932 5934 5936 5938 5939 5940 5941 5942 5943 5944 5946 5946 5947 5947 5947 5948 5948 5948 5948 5949 5949 5949 5950 5950 5951 5951 5951 5951 5951 5951 5952 5952 5953 5953 5953 5952 5952 5952 5951 5951 5951 5951 5951 5951 5951 5951 5951 5951 5951 5951 5950 5950 5950 5950 5950 5950 5949 5949 5948 5947 5947 5946 5945 5945 5944 5942 5941 5940 5938 5937 5936
5904 5905 5907 5909 5910 5911 5913 5915 5917 5920 5922 5924 5926 5928 5930 5932 5934 5936 5937 5938 5939 5941 5942 5943 5944 5945 5946 5946 5946 5947 5947 5947 5947 5948 5948 5948 5948 5949 5949 5949 5949 5950 5950 5950 5951 5951 5952 5952 5952 5952 5952 5951 5951 5951 5951 5951 5951 5951 5950 5950 5950 5950 5950 5950 5950 5950 5950 5949 5949 5949 5949 5948 5947 5946 5945 5945 5944 5943 5942 5941 5939 5938 5936 5935 5934
5901 5903 5905 5907 5908 5910 5912 5914 5916 5918 5920 5922 5924 5926 5928 5930 5932 5934 5935 5936 5938 5939 5940 5941 5942 5943 5944 5944 5945 5945 5945 5946 5946 5946 5947 5947 5947 5947 5948 5948 5948 5948 5948 5949 5949 5950 5951 5951 5951 5951 5951 5951 5951 5950 5950 5950 5950 5950 5950 5950 5949 5950 5950 5950 5950 5949 5949 5948 5948 5947 5947 5947 5946 5945 5944 5943 5942 5941 5940 5939 5937 5936 5934 5933 5931
5899 5901 5903 5904 5906 5908 5910 5912 5914 5917 5919 5921 5922 5924 5926 5928 5930 5932 5933 5935 5936 5937 5938 5939 5940 5941 5942 5942 5943 5944 5944 5944 5945 5945 5945 5946 5946 5946 5946 5946 5946 5946 5947 5947 5948 5949 5949 5949 5950 5950 5950 5950 5949 5949 5949 5950 5950 5950 5949 5949 5949 5949 5949 5949 5949 5949 5949 5948 5947 5946 5945 5945 5944 5943 5942 5942 5941 5940 5939 5937 5935 5934 5932 5931 5930
5897 5899 5900 5902 5905 5906 5908 5911 5913 5915 5917 5919 5920 5922 5924 5926 5928 5929 5931 5932 5934 5935 5936 5937 5938 5939 5939 5940 5941 5942 5943 5943 5943 5943 5944 5944 5945 5945 5945 5945 5945 5945 5945 5946 5947 5947 5947 5948 5948 5948 5948 5948 5948 5948 5948 5948 5949 5949 5949 5948 5948 5948 5948 5948 5948 5948 5947 5947 5946 5945 5944 5943 5943 5942 5940 5939 5939 5938 5936 5935 5933 5932 5930 5929 5928
5895 5897 5898 5901 5903 5905 5907 5909 5911 5913 5915 5917 5918 5920 5922 5924 5926 5927 5929 5930 5932 5933 5934 5935 5936 5937 5937 5939 5939 5940 5941 5941 5941 5942 5942 5943 5943 5943 5943 5943 5943 5943 5944 5944 5945 5946 5946 5946 5947 5947 5947 5946 5947 5947 5947 5947 5947 5948 5947 5947 5947 5947 5947 5946 5947 5946 5946 5945 5945 5944 5943 5942 5941 5940 5938 5936 5935 5934 5932 5931 5931 5930 5927 5927 5927
5893 5895 5897 5899 5901 5903 5905 5907 5908 5910 5912 5914 5916 5918 5920 5922 5923 5925 5926 5928 5930 5931 5932 5933 5934 5935 5936 5937 5938 5939 5939 5940 5940 5940 5940 5941 5941 5941 5941 5941 5941 5942 5942 5943 5944 5944 5945 5945 5945 5945 5945 5945 5945 5945 5946 5946 5946 5946 5946 5945 5945 5945 5944 5944 5944 5944 5943 5942 5942 5942 5941 5940 5939 5938 5936 5934 5932 5931 5929 5928 5928 5927 5925 5924 5925
5891 5894 5896 5898 5900 5901 5903 5904 5906 5908 5910 5912 5914 5916 5918 5919 5921 5923 5925 5927 5928 5929 5930 5932 5933 5934 5935 5935 5936 5937 5938 5938 5938 5938 5939 5939 5939 5939 5939 5939 5940 5940 5940 5941 5942 5942 5943 5943 5944 5944 5944 5944 5944 5944 5944 5944 5944 5944 5944 5943 5943 5943 5942 5941 5940 5940 5940 5939 5940 5939 5939 5939 5937 5935 5934 5932 5930 5929 5927 5926 5925 5925 5923 5922 5923
5890 5892 5894 5896 5897 5898 5900 5902 5904 5905 5908 5910 5912 5914 5915 5917 5919 5921 5923 5924 5925 5927 5928 5930 5931 5932 5933 5934 5935 5935 5936 5936 5936 5936 5937 5937 5937 5937 5937 5937 5938 5938 5939 5939 5940 5940 5941 5942 5942 5942 5942 5943 5943 5943 5943 5943 5943 5942 5942 5942 5941 5940 5940 5938 5937 5937 5937 5938 5938 5938 5939 5938 5936 5933 5932 5930 5928 5927 5925 5924 5923 5922 5920 5919 5920
5888 5890 5891 5893 5894 5896 5898 5900 5902 5904 5906 5908 5910 5912 5913 5915 5917 5919 5920 5922 5923 5925 5927 5928 5929 5930 5931 5932 5933 5934 5934 5934 5934 5935 5935 5935 5935 5935 5935 5936 5936 5937 5937 5938 5938 5939 5939 5940 5940 5941 5941 5941 5941 5941 5941 5941 5941 5940 5940 5940 5939 5938 5937 5936 5935 5935 5935 5937 5937 5937 5937 5937 5934 5931 5929 5928 5926 5924 5922 5920 5918 5918 5916 5915 5915
5886 5888 5889 5891 5892 5895 5897 5898 5900 5902 5904 5906 5908 5910 5911 5913 5915 5917 5918 5920 5921 5923 5925 5926 5927 5928 5929 5930 5931 5932 5932 5932 5933 5933 5933 5933 5933 5933 5934 5934 5935 5935 5936 5936 5937 5937 5938 5938 5939 5939 5939 5940 5940 5939 5939 5938 5938 5938 5938 5937 5936 5935 5934 5933 5932 5933 5933 5933 5934 5934 5934 5934 5933 5929 5926 5925 5923 5919 5916 5914 5912 5910 5910 5910 5909
5884 5886 5887 5889 5891 5893 5895 5896 5899 5900 5902 5904 5906 5908 5910 5912 5914 5915 5916 5918 5919 5921 5923 5924 5925 5926 5928 5928 5929 5930 5930 5930 5931 5932 5932 5932 5932 5932 5933 5933 5934 5934 5935 5935 5936 5936 5936 5937 5937 5938 5938 5938 5938 5937 5937 5936 5935 5935 5934 5934 5933 5932 5931 5931 5931 5930 5929 5930 5931 5931 5929 5929 5931 5929 5923 5920 5917 5913 5911 5910 5908 5904 5903 5903 5903
5881 5883 5885 5887 5889 5890 5892 5894 5897 5898 5900 5902 5904 5906 5908 5910 5912 5913 5915 5916 5918 5920 5921 5922 5923 5924 5925 5926 5927 5928 5928 5928 5929 5930 5930 5931 5931 5931 5932 5932 5933 5933 5934 5934 5934 5935 5935 5935 5936 5936 5936 5936 5936 5935 5935 5934 5933 5932 5931 5930 5930 5929 5928 5928 5927 5926 5925 5925 5927 5928 5927 5927 5930 5928 5921 5916 5913 5910 5907 5907 5905 5900 5896 5896 5898
5879 5880 5882 5884 5886 5888 5890 5893 5895 5897 5899 5900 5902 5905 5906 5908 5910 5911 5913 5915 5916 5918 5919 5920 5921 5922 5923 5924 5925 5925 5926 5926 5927 5928 5928 5929 5929 5930 5931 5931 5932 5932 5932 5933 5933 5933 5934 5934 5934 5934 5934 5934 5934 5933 5932 5932 5931 5930 5928 5927 5926 5925 5925 5925 5923 5920 5919 5919 5922 5925 5925 5924 5925 5924 5919 5914 5909 5905 5901 5902 5902 5894 5887 5890 5895
5877 5878 5881 5883 5885 5887 5889 5891 5893 5895 5897 5899 5901 5903 5905 5907 5908 5910 5911 5913 5915 5916 5917 5918 5919 5920 5920 5921 5922 5923 5923 5923 5925 5926 5926 5927 5928 5929 5929 5930 5930 5931 5931 5931 5931 5932 5932 5932 5932 5932 5932 5932 5931 5930 5930 5929 5929 5928 5926 5924 5922 5922 5922 5922 5918 5914 5913 5916 5922 5925 5922 5918 5917 5916 5914 5910 5905 5899 5895 5898 5898 5888 5879 5883 5888
5876 5878 5880 5881 5883 5886 5888 5890 5892 5894 5896 5898 5900 5902 5903 5905 5907 5908 5910 5911 5913 5914 5915 5916 5916 5917 5918 5919 5920 5920 5920 5921 5922 5923 5923 5924 5926 5927 5927 5928 5928 5929 5929 5929 5930 5930 5930 5930 5931 5931 5931 5930 5929 5928 5927 5926 5926 5926 5924 5921 5919 5918 5920 5919 5913 5910 5913 5918 5923 5923 5918 5913 5912 5911 5910 5907 5904 5899 5893 5893 5892 5885 5877 5875 5878
5875 5877 5879 5880 5882 5884 5886 5888 5890 5892 5894 5896 5898 5900 5902 5903 5905 5906 5908 5909 5910 5911 5912 5913 5914 5915 5916 5916 5917 5917 5917 5918 5919 5920 5921 5922 5923 5924 5925 5926 5926 5927 5927 5927 5928 5928 5928 5928 5929 5929 5929 5928 5927 5926 5925 5924 5924 5923 5922 5920 5917 5915 5915 5912 5910 5911 5915 5919 5921 5920 5915 5911 5910 5909 5909 5906 5902 5897 5892 5889 5887 5882 5875 5870 5869
5874 5876 5877 5879 5881 5883 5885 5887 5889 5891 5893 5895 5897 5898 5900 5902 5903 5904 5906 5907 5908 5909 5910 5911 5912 5912 5913 5914 5914 5915 5915 5915 5917 5918 5919 5920 5921 5922 5922 5923 5924 5925 5925 5925 5926 5926 5926 5926 5926 5926 5926 5926 5925 5924 5923 5922 5922 5921 5920 5917 5915 5912 5907 5904 5906 5912 5916 5917 5917 5915 5912 5909 5907 5906 5905 5902 5899 5895 5890 5887 5883 5878 5873 5867 5863
5871 5873 5875 5877 5879 5881 5883 5885 5887 5889 5891 5893 5895 5896 5898 5899 5901 5902 5904 5905 5905 5906 5907 5908 5909 5909 5910 5911 5912 5913 5913 5913 5914 5916 5916 5917 5919 5920 5920 5922 5922 5923 5923 5923 5924 5924 5924 5924 5924 5924 5924 5923 5923 5922 5921 5920 5919 5918 5916 5914 5913 5909 5902 5896 5900 5907 5911 5910 5910 5909 5907 5905 5904 5902 5900 5898 5896 5892 5887 5883 5878 5873 5868 5863 5859
5869 5871 5873 5875 5877 5879 5881 5883 5885 5887 5889 5891 5892 5894 5896 5897 5899 5900 5901 5902 5903 5904 5905 5905 5906 5906 5907 5908 5909 5910 5911 5910 5911 5912 5914 5915 5916 5917 5918 5920 5920 5920 5920 5921 5921 5922 5922 5922 5922 5921 5921 5920 5920 5919 5917 5916 5916 5915 5913 5911 5910 5908 5901 5893 5893 5899 5903 5904 5905 5904 5902 5900 5899 5897 5896 5894 5892 5888 5884 5879 5874 5868 5863 5859 5855
5868 5870 5872 5874 5876 5878 5879 5881 5883 5885 5887 5888 5890 5892 5894 5895 5897 5898 5899 5900 5901 5901 5902 5903 5903 5904 5904 5905 5907 5908 5908 5908 5908 5909 5911 5912 5913 5915 5916 5917 5917 5917 5918 5919 5919 5919 5919 5919 5919 5918 5918 5917 5916 5915 5914 5913 5913 5912 5910 5908 5907 5906 5903 5896 5891 5893 5897 5899 5901 5900 5899 5896 5894 5893 5891 5889 5887 5884 5880 5876 5871 5865 5860 5855 5851
5866 5868 5870 5871 5873 5875 5877 5878 5880 5882 5884 5886 5888 5889 5891 5893 5894 5895 5896 5897 5898 5899 5900 5900 5901 5901 5902 5903 5904 5905 5905 5906 5906 5906 5908 5909 5910 5912 5913 5913 5914 5914 5915 5916 5916 5916 5916 5916 5916 5915 5914 5913 5912 5912 5911 5910 5910 5909 5907 5905 5903 5902 5901 5896 5891 5889 5890 5892 5893 5894 5892 5891 5889 5887 5885 5884 5883 5880 5875 5871 5868 5862 5857 5852 5847
5863 5864 5866 5868 5870 5872 5874 5875 5877 5879 5881 5883 5885 5886 5888 5889 5891 5892 5893 5895 5896 5896 5897 5897 5898 5899 5899 5900 5901 5902 5902 5903 5903 5903 5904 5905 5906 5908 5909 5910 5910 5911 5912 5913 5913 5913 5913 5913 5912 5912 5911 5910 5909 5909 5908 5908 5907 5906 5904 5902 5900 5898 5897 5894 5891 5888 5886 5885 5885 5885 5884 5882 5881 5879 5878 5878 5876 5874 5869 5865 5863 5859 5853 5847 5843
5859 5860 5861 5864 5866 5868 5870 5871 5873 5875 5877 5879 5881 5883 5884 5885 5887 5889 5890 5891 5892 5893 5894 5895 5895 5896 5897 5898 5898 5899 5899 5899 5900 5900 5901 5902 5902 5904 5905 5906 5906 5907 5908 5909 5909 5909 5909 5909 5909 5908 5908 5907 5906 5906 5905 5905 5904 5902 5901 5899 5897 5895 5893 5891 5888 5885 5882 5880 5879 5877 5875 5874 5872 5871 5870 5869 5867 5864 5860 5857 5856 5853 5848 5843 5840
5855 5856 5858 5860 5861 5863 5865 5867 5869 5871 5874 5876 5878 5879 5880 5882 5883 5884 5886 5887 5889 5890 5890 5891 5892 5894 5894 5895 5896 5896 5896 5896 5897 5897 5898 5898 5899 5900 5901 5902 5903 5903 5904 5905 5905 5905 5905 5905 5905 5905 5904 5904 5904 5903 5902 5901 5900 5899 5898 5896 5894 5892 5890 5888 5885 5882 5879 5877 5874 5871 5869 5867 5865 5863 5862 5860 5858 5855 5850 5847 5846 5845 5842 5838 5835
5852 5853 5855 5856 5858 5860 5862 5864 5866 5868 5870 5872 5874 5875 5877 5878 5879 5880 5882 5883 5884 5885 5886 5887 5888 5890 5891 5892 5892 5893 5893 5894 5894 5894 5894 5895 5896 5897 5898 5899 5899 5900 5900 5900 5900 5901 5901 5901 5901 5901 5901 5900 5900 5899 5898 5897 5896 5895 5894 5892 5891 5889 5886 5884 5881 5879 5876 5873 5870 5867 5864 5861 5859 5857 5855 5852 5850 5847 5843 5838 5837 5836 5834 5831 5829
5847 5849 5851 5852 5854 5856 5858 5860 5863 5865 5866 5868 5870 5871 5873 5874 5875 5876 5877 5878 5879 5881 5882 5883 5884 5885 5886 5887 5888 5889 5890 5891 5891 5891 5892 5892 5893 5894 5895 5895 5896 5896 5896 5896 5896 5897 5897 5897 5897 5897 5896 5896 5896 5895 5894 5892 5891 5891 5889 5888 5886 5884 5882 5879 5877 5874 5871 5868 5865 5862 5860 5857 5854 5852 5849 5847 5845 5842 5837 5833 5830 5828 5826 5823 5821
5843 5845 5847 5848 5850 5852 5854 5856 5858 5860 5862 5863 5865 5867 5868 5869 5870 5871 5872 5873 5875 5876 5877 5879 5880 5880 5881 5883 5884 5885 5887 5887 5888 5888 5889 5889 5890 5890 5891 5891 5891 5891 5892 5892 5892 5893 5893 5893 5893 5892 5892 5891 5891 5890 5889 5888 5887 5886 5884 5883 5881 5879 5877 5874 5872 5869 5866 5863 5860 5857 5855 5852 5849 5847 5844 5842 5839 5837 5832 5828 5825 5822 5819 5817 5814
5840 5841 5843 5845 5846 5848 5850 5851 5853 5855 5857 5858 5860 5862 5863 5864 5865 5867 5868 5869 5870 5871 5872 5873 5874 5875 5876 5878 5879 5880 5882 5883 5884 5885 5885 5885 5886 5886 5886 5886 5887 5887 5888 5888 5888 5888 5888 5888 5888 5888 5887 5887 5886 5885 5883 5882 5882 5880 5879 5877 5875 5873 5871 5869 5866 5863 5861 5858 5855 5853 5850 5847 5844 5842 5839 5836 5833 5831 5827 5823 5819 5815 5813 5810 5807
5836 5837 5839 5841 5842 5844 5846 5847 5849 5851 5852 5854 5856 5857 5858 5859 5860 5862 5863 5864 5865 5866 5867 5868 5869 5870 5871 5873 5874 5875 5877 5878 5879 5880 5880 5881 5881 5881 5882 5882 5882 5883 5883 5883 5883 5883 5883 5883 5883 5883 5882 5881 5880 5879 5878 5877 5876 5875 5873 5871 5869 5867 5865 5863 5860 5858 5855 5853 5850 5848 5845 5842 5839 5836 5833 5830 5827 5824 5821 5817 5813 5809 5806 5804 5800
5832 5833 5835 5837 5839 5840 5842 5844 5846 5847 5849 5850 5851 5853 5854 5855 5856 5858 5859 5860 5861 5862 5863 5864 5864 5865 5866 5867 5868 5870 5872 5873 5874 5875 5876 5876 5877 5877 5877 5878 5878 5878 5878 5878 5878 5878 5879 5878 5878 5877 5876 5875 5874 5873 5872 5871 5870 5869 5867 5865 5863 5861 5859 5856 5854 5852 5850 5848 5845 5843 5840 5837 5834 5831 5827 5824 5821 5818 5814 5811 5807 5803 5801 5798 5795
5829 5830 5831 5833 5835 5836 5838 5840 5841 5843 5844 5846 5847 5848 5850 5851 5852 5853 5854 5855 5856 5857 5858 5858 5859 5860 5861 5862 5863 5864 5866 5867 5868 5869 5870 5871 5872 5873 5873 5872 5872 5872 5873 5872 5872 5873 5873 5872 5872 5871 5870 5869 5868 5867 5866 5865 5864 5863 5861 5859 5857 5855 5853 5851 5848 5846 5844 5842 5839 5837 5834 5831 5828 5824 5821 5818 5815 5812 5808 5805 5801 5797 5795 5792 5790
5825 5826 5828 5829 5830 5832 5833 5835 5836 5838 5839 5841 5842 5843 5844 5846 5847 5848 5849 5850 5851 5852 5853 5853 5854 5855 5855 5856 5857 5858 5859 5861 5863 5864 5865 5865 5866 5867 5867 5866 5865 5865 5865 5865 5865 5866 5866 5865 5865 5864 5863 5862 5861 5860 5860 5859 5857 5856 5855 5853 5851 5849 5847 5844 5842 5840 5838 5836 5833 5830 5828 5825 5822 5818 5815 5812 5809 5806 5803 5799 5796 5792 5789 5786 5783
5821 5822 5824 5825 5826 5827 5829 5830 5832 5833 5835 5836 5837 5838 5840 5841 5842 5843 5844 5845 5846 5847 5848 5849 5850 5850 5850 5851 5852 5853 5854 5855 5856 5857 5858 5859 5859 5859 5859 5858 5857 5857 5858 5859 5859 5859 5860 5859 5859 5858 5856 5855 5855 5854 5853 5852 5851 5849 5848 5846 5844 5842 5840 5838 5836 5834 5832 5829 5827 5824 5822 5819 5815 5812 5809 5806 5802 5799 5796 5793 5789 5786 5783 5779 5776
5817 5818 5819 5821 5822 5823 5824 5826 5827 5828 5830 5831 5832 5833 5835 5836 5837 5838 5839 5840 5842 5843 5844 5844 5845 5846 5846 5846 5847 5848 5849 5850 5850 5851 5852 5852 5852 5852 5851 5850 5850 5852 5853 5854 5854 5854 5854 5854 5853 5852 5850 5849 5848 5848 5846 5845 5844 5842 5841 5839 5837 5835 5833 5831 5829 5827 5825 5822 5820 5817 5815 5812 5809 5805 5802 5799 5796 5793 5790 5786 5783 5780 5777 5773 5768
5812 5813 5815 5816 5818 5819 5820 5821 5822 5824 5825 5826 5827 5829 5830 5831 5832 5833 5835 5836 5837 5838 5839 5840 5840 5840 5840 5841 5842 5843 5843 5844 5844 5845 5844 5845 5845 5845 5844 5844 5846 5848 5849 5848 5849 5849 5849 5848 5847 5845 5844 5843 5842 5841 5840 5838 5837 5835 5834 5832 5830 5828 5826 5824 5822 5820 5818 5815 5813 5810 5808 5805 5801 5798 5796 5793 5790 5787 5784 5781 5778 5775 5772 5768 5763
5807 5809 5810 5812 5813 5814 5816 5817 5818 5819 5820 5822 5823 5824 5825 5827 5828 5829 5830 5831 5832 5833 5834 5835 5835 5835 5835 5836 5836 5837 5837 5838 5838 5837 5837 5838 5840 5840 5840 5840 5843 5844 5844 5843 5843 5843 5842 5841 5840 5839 5838 5836 5835 5834 5833 5831 5830 5828 5827 5825 5823 5821 5819 5817 5815 5813 5810 5808 5805 5803 5800 5797 5794 5791 5789 5786 5783 5781 5778 5775 5773 5770 5767 5764 5760
5802 5803 5805 5807 5808 5810 5811 5812 5813 5815 5816 5817 5818 5820 5821 5822 5823 5824 5825 5826 5827 5828 5828 5829 5829 5830 5830 5830 5831 5831 5832 5832 5832 5831 5831 5832 5834 5834 5834 5835 5837 5838 5838 5838 5837 5836 5835 5834 5833 5831 5830 5829 5828 5827 5825 5824 5822 5820 5819 5817 5815 5814 5812 5809 5807 5805 5803 5801 5798 5795 5792 5789 5787 5784 5782 5779 5776 5774 5771 5769 5766 5764 5761 5758 5755
5797 5798 5799 5801 5803 5805 5806 5807 5809 5810 5811 5813 5814 5815 5816 5817 5817 5818 5820 5821 5821 5822 5822 5823 5823 5824 5824 5824 5825 5825 5826 5826 5826 5825 5825 5826 5827 5828 5828 5829 5830 5830 5831 5830 5830 5829 5827 5826 5825 5824 5823 5821 5820 5819 5817 5816 5814 5813 5811 5809 5808 5806 5804 5802 5800 5798 5795 5793 5790 5788 5785 5782 5780 5777 5774 5772 5769 5767 5765 5762 5760 5757 5754 5752 5749
5792 5793 5794 5795 5797 5799 5801 5802 5803 5805 5806 5807 5809 5810 5811 5812 5812 5813 5814 5815 5815 5815 5816 5816 5816 5817 5818 5818 5819 5820 5820 5820 5820 5820 5820 5820 5821 5822 5823 5822 5822 5821 5821 5821 5820 5820 5819 5818 5817 5816 5815 5813 5812 5811 5809 5808 5806 5805 5803 5802 5800 5798 5797 5795 5792 5790 5787 5785 5783 5780 5777 5774 5772 5770 5767 5764 5762 5760 5757 5755 5753 5751 5748 5746 5743
5786 5788 5789 5790 5792 5793 5794 5796 5798 5799 5800 5802 5803 5804 5805 5806 5806 5806 5807 5808 5808 5808 5809 5809 5810 5811 5812 5812 5813 5813 5814 5814 5814 5814 5814 5814 5814 5815 5815 5815 5814 5813 5812 5812 5812 5811 5811 5810 5809 5808 5807 5806 5805 5803 5802 5801 5799 5797 5796 5794 5793 5791 5789 5787 5785 5782 5779 5777 5775 5773 5770 5767 5764 5762 5760 5757 5754 5752 5749 5747 5745 5743 5741 5739 5737
5780 5782 5783 5785 5786 5787 5788 5789 5791 5793 5794 5796 5797 5798 5799 5799 5800 5800 5801 5801 5801 5801 5802 5803 5804 5805 5806 5806 5807 5807 5808 5808 5808 5808 5808 5808 5808 5808 5807 5806 5805 5805 5805 5805 5804 5804 5803 5802 5801 5800 5799 5798 5797 5796 5795 5793 5792 5790 5788 5787 5785 5783 5781 5779 5776 5774 5771 5769 5767 5765 5762 5759 5757 5755 5752 5750 5747 5744 5741 5739 5737 5735 5733 5731 5729
5774 5776 5777 5778 5780 5781 5782 5784 5785 5786 5788 5790 5792 5792 5792 5792 5794 5795 5795 5795 5794 5795 5796 5797 5798 5799 5800 5800 5801 5801 5801 5801 5801 5801 5802 5802 5802 5801 5800 5799 5799 5798 5798 5798 5797 5796 5796 5795 5794 5793 5792 5791 5790 5788 5787 5785 5784 5782 5780 5779 5777 5775 5773 5771 5768 5766 5763 5761 5759 5757 5754 5752 5750 5748 5745 5743 5740 5737 5735 5732 5729 5727 5725 5724 5722
5769 5770 5771 5772 5773 5775 5776 5777 5779 5781 5782 5783 5785 5785 5784 5783 5785 5789 5790 5789 5789 5790 5791 5791 5792 5793 5793 5793 5794 5794 5794 5794 5794 5794 5794 5794 5794 5794 5794 5793 5793 5792 5791 5791 5790 5789 5788 5788 5787 5786 5785 5784 5782 5781 5779 5777 5776 5774 5772 5771 5769 5767 5765 5763 5760 5758 5755 5753 5751 5749 5747 5744 5742 5740 5738 5736 5733 5731 5728 5725 5723 5720 5718 5717 5715
5762 5764 5765 5766 5767 5768 5770 5771 5773 5775 5776 5777 5778 5779 5778 5776 5776 5779 5782 5783 5783 5784 5784 5785 5785 5785 5786 5786 5786 5786 5786 5786 5786 5786 5786 5787 5787 5787 5786 5786 5786 5785 5784 5783 5783 5782 5781 5780 5779 5778 5777 5776 5774 5773 5771 5770 5768 5766 5764 5762 5760 5758 5756 5754 5752 5749 5747 5745 5743 5741 5739 5737 5735 5732 5731 5728 5726 5724 5721 5719 5716 5713 5711 5710 5708
5756 5757 5758 5759 5761 5763 5764 5766 5767 5769 5770 5771 5772 5772 5772 5771 5770 5771 5772 5773 5774 5775 5776 5777 5777 5777 5777 5778 5778 5778 5777 5777 5778 5778 5778 5778 5778 5778 5778 5778 5778 5777 5776 5775 5775 5774 5773 5772 5771 5770 5768 5767 5765 5764 5762 5761 5760 5758 5756 5754 5751 5749 5747 5745 5743 5741 5739 5736 5734 5733 5731 5729 5727 5724 5723 5721 5718 5716 5714 5712 5709 5707 5705 5703 5701
5749 5750 5751 5753 5755 5757 5759 5761 5762 5763 5765 5766 5766 5766 5766 5766 5765 5764 5764 5765 5765 5765 5767 5767 5767 5767 5768 5768 5768 5768 5769 5769 5769 5769 5769 5770 5770 5770 5769 5769 5769 5768 5767 5767 5766 5765 5764 5763 5762 5761 5759 5758 5756 5755 5753 5752 5750 5749 5747 5745 5743 5740 5738 5736 5734 5732 5731 5728 5726 5724 5723 5721 5719 5716 5714 5713 5711 5708 5706 5704 5701 5699 5697 5696 5694
5741 5742 5744 5746 5748 5751 5753 5755 5757 5758 5758 5759 5760 5760 5760 5759 5759 5758 5758 5758 5757 5756 5757 5757 5757 5757 5758 5758 5759 5759 5759 5760 5760 5760 5760 5761 5761 5761 5760 5760 5760 5759 5758 5758 5757 5756 5755 5754 5753 5751 5750 5749 5747 5746 5744 5743 5741 5739 5737 5735 5733 5731 5730 5728 5726 5724 5723 5721 5718 5716 5714 5712 5710 5708 5706 5705 5703 5701 5699 5696 5694 5692 5690 5688 5687
5734 5735 5737 5739 5741 5743 5745 5747 5749 5751 5751 5751 5752 5752 5752 5751 5751 5751 5750 5750 5749 5748 5748 5747 5747 5747 5748 5748 5749 5749 5750 5750 5750 5750 5751 5751 5751 5751 5751 5751 5751 5751 5750 5749 5748 5747 5745 5744 5743 5742 5741 5740 5738 5737 5735 5733 5731 5730 5728 5726 5724 5722 5721 5720 5718 5716 5714 5712 5710 5708 5705 5704 5702 5700 5698 5696 5695 5693 5691 5689 5686 5684 5683 5681 5680
5728 5729 5731 5732 5734 5735 5736 5738 5740 5741 5742 5742 5742 5742 5741 5741 5740 5741 5740 5739 5738 5738 5738 5737 5737 5738 5738 5739 5739 5740 5740 5740 5740 5740 5741 5741 5742 5742 5742 5742 5742 5741 5740 5739 5738 5737 5736 5735 5734 5733 5732 5730 5729 5727 5726 5724 5722 5721 5719 5717 5715 5714 5712 5710 5709 5706 5705 5703 5701 5699 5697 5695 5693 5691 5690 5688 5686 5685 5683 5681 5679 5677 5675 5674 5673